Wind_Speed
15 14 13 13 12 11 11 10 9 8 8 7 6 6 5 5 4 4 3 3 3 3 3 3 3 2 2 2 3 3 4 5 5 6 6 6 7 7 7 7 8 8 9
17 16 15 15 14 13 13 12 11 10 9 9 8 7 7 6 6 5 5 4 4 3 3 3 3 3 3 3 3 4 4 5 6 6 6 6 7 7 8 8 9 9 10
19 18 17 17 16 16 15 14 13 12 11 10 10 9 8 8 7 7 6 5 5 4 3 3 4 4 4 4 5 5 6 6 7 7 7 7 7 8 9 9 9 10 10
21 20 19 19 19 18 17 16 15 14 13 12 12 11 10 10 9 8 8 7 6 5 4 4 4 5 5 5 6 6 7 7 8 8 8 8 8 9 10 10 10 11 11
23 22 21 21 21 20 20 19 17 16 15 14 14 13 12 11 10 9 9 8 7 6 6 6 6 6 6 7 7 7 7 8 8 9 9 9 10 10 11 11 11 11 12
25 24 24 24 23 23 22 21 19 18 17 16 15 15 14 13 12 11 10 9 9 8 8 7 7 7 7 8 8 8 9 9 9 10 10 10 10 11 11 12 12 12 12
26 26 25 25 25 25 24 23 22 21 19 18 18 17 16 15 14 13 12 11 11 10 9 9 9 9 9 9 9 9 10 10 10 11 11 11 11 11 12 12 12 13 13
27 27 26 26 26 27 26 26 24 23 22 21 20 19 18 17 16 15 14 13 13 12 11 11 11 10 10 10 11 11 11 11 11 12 12 12 12 12 13 13 13 13 14
28 28 28 27 27 27 27 27 27 26 25 23 22 21 20 19 18 17 16 15 15 14 13 13 12 12 12 12 12 12 12 12 12 13 13 13 13 13 14 14 14 14 14
29 29 29 28 28 28 28 28 28 27 27 25 24 23 22 21 20 20 18 17 17 16 15 15 14 13 13 13 14 14 13 14 14 14 14 14 14 15 15 15 15 15 16
30 30 30 30 29 29 29 29 29 28 28 27 26 25 24 23 22 21 20 19 19 18 17 16 16 15 15 15 15 15 15 15 15 15 16 16 16 16 16 17 17 17 17
31 30 31 31 31 30 30 30 30 30 30 29 28 27 26 25 23 22 22 21 20 19 19 18 18 18 17 17 16 16 16 17 17 17 17 17 17 17 18 18 19 19 19
32 32 31 32 32 32 31 31 32 31 31 31 30 29 27 26 25 23 23 22 21 21 20 20 19 19 19 18 18 17 18 18 18 18 18 18 19 19 19 20 20 21 21
32 33 33 33 33 33 33 33 33 33 32 32 31 31 30 28 27 25 24 24 23 22 22 21 21 20 20 20 19 19 19 19 19 19 20 20 20 21 21 22 22 22 23
33 33 32 33 34 34 35 35 35 35 34 33 32 32 32 30 29 28 26 25 25 24 23 22 22 21 21 21 21 20 20 20 21 21 22 22 22 23 23 24 24 24 24
35 35 35 33 34 34 36 36 36 36 36 35 33 33 33 32 31 30 28 27 26 25 24 24 23 22 22 22 22 22 22 22 23 23 23 24 24 24 25 25 26 26 26
34 35 35 35 35 35 35 37 37 37 37 37 35 34 34 33 32 31 30 29 27 27 26 26 25 24 24 24 24 24 24 24 24 25 25 26 26 26 26 27 27 28 28
34 34 35 36 36 36 36 36 38 38 37 37 37 35 35 33 32 33 32 31 30 28 28 28 27 26 26 26 26 26 26 26 27 27 27 28 28 28 28 29 29 29 30
33 34 34 35 37 37 37 38 39 38 37 37 38 37 37 35 34 34 34 33 32 31 30 30 29 29 29 29 29 29 29 29 29 29 29 30 30 30 30 30 31 31 32
33 33 33 34 35 37 37 38 39 38 38 38 38 38 38 37 36 35 34 34 34 33 32 32 32 31 31 31 31 31 31 31 30 30 31 31 32 32 32 32 33 34 34
32 32 32 33 34 35 36 37 37 38 37 39 38 38 38 39 37 36 36 36 36 36 34 34 33 33 33 33 32 32 33 33 32 32 33 33 33 34 34 35 35 36 37
31 31 31 32 32 34 36 37 37 38 38 38 38 37 37 38 37 35 36 36 36 36 36 36 35 35 35 35 34 35 35 35 34 34 34 35 36 36 36 37 37 38 38
29 30 30 30 32 33 35 36 37 37 38 38 38 37 37 38 38 38 37 37 37 38 38 37 36 37 37 37 37 37 38 37 36 37 37 38 38 38 38 39 39 40 40
27 28 29 30 31 33 34 35 36 36 37 38 38 38 37 38 38 38 38 38 38 38 39 39 39 39 39 39 39 39 40 40 40 40 40 40 40 41 41 41 42 43 43
25 26 28 30 30 31 33 34 35 36 37 38 38 38 38 38 40 40 39 39 39 39 40 40 41 41 40 40 41 40 41 42 42 42 42 42 43 43 44 44 45 45 45
24 26 27 29 29 30 31 33 34 36 36 37 38 38 38 38 39 41 41 40 40 40 42 42 42 41 42 42 43 43 43 43 44 44 44 44 45 46 46 47 47 47 47
Wind_Direction
239 237 236 235 234 235 234 230 228 228 227 225 223 223 226 226 222 226 231 239 245 252 255 258 257 256 261 271 282 294 305 311 312 308 306 303 299 298 298 296 296 296 295
240 239 239 237 236 236 236 234 233 232 233 231 229 230 233 233 232 235 237 240 245 249 252 256 255 255 264 278 288 295 304 308 310 310 307 303 299 298 297 298 296 294 295
241 240 239 238 237 237 237 237 235 234 236 237 235 234 235 236 237 237 235 236 239 242 249 253 256 260 268 279 289 295 299 303 307 306 303 303 302 299 297 297 296 294 296
242 241 239 239 238 237 237 237 236 235 236 238 238 237 237 238 239 238 236 236 240 245 250 258 264 268 273 278 285 291 294 300 304 304 302 301 300 299 300 298 296 295 295
242 242 240 239 239 238 238 237 236 236 236 237 239 239 239 240 241 239 238 238 241 246 255 263 269 271 275 279 284 289 292 295 298 300 299 299 298 298 299 299 297 295 295
241 242 242 239 239 238 237 237 236 236 235 236 237 239 240 240 241 240 240 241 242 248 257 265 269 271 275 279 283 287 288 291 293 294 295 296 297 297 297 297 297 295 294
240 241 241 240 239 238 236 235 236 237 236 237 237 239 240 240 240 239 240 242 245 251 258 264 268 271 273 276 280 284 287 289 291 292 293 293 295 295 296 297 297 296 294
239 240 240 239 238 239 238 236 235 236 237 236 238 239 241 240 240 240 241 243 248 254 259 263 266 269 273 275 278 282 286 288 290 291 292 292 292 293 294 295 296 296 295
238 239 239 239 238 238 238 237 236 236 237 238 238 238 241 242 242 242 243 245 249 254 258 261 264 267 271 274 276 279 282 283 286 288 290 291 291 290 292 292 293 294 296
238 238 239 239 238 238 238 238 237 237 238 239 239 240 241 243 244 245 244 247 250 254 257 259 263 266 270 274 276 276 278 280 282 285 287 289 290 289 290 291 293 292 294
239 239 239 239 239 239 239 239 238 238 239 239 239 240 241 243 245 245 244 248 251 254 256 259 262 266 270 273 275 275 276 278 280 283 285 287 288 288 287 288 291 293 292
239 239 238 238 238 239 239 239 239 238 238 238 239 240 241 242 245 244 246 248 251 254 256 259 263 267 270 273 275 276 276 277 279 281 284 286 287 287 286 286 287 290 292
240 239 238 238 238 239 238 239 238 238 238 238 238 239 241 241 243 245 248 250 252 255 257 260 263 266 269 272 274 276 277 277 278 281 282 284 285 285 286 285 285 287 289
240 240 240 239 239 239 238 239 239 238 238 238 238 239 240 241 242 245 249 252 254 255 258 261 264 265 268 270 273 275 277 277 277 279 281 283 284 285 285 285 285 286 288
241 240 240 238 239 239 238 238 239 238 238 239 239 239 239 240 241 243 247 251 253 254 258 262 264 266 268 271 272 274 276 277 277 279 280 281 282 284 284 285 285 286 287
241 241 241 241 239 239 239 238 239 239 238 238 240 240 239 239 242 243 246 249 252 255 258 262 264 267 269 271 272 273 275 277 277 278 280 280 282 283 283 284 284 285 285
240 240 240 241 239 239 238 238 237 238 239 239 239 239 239 240 241 242 244 247 251 255 258 261 265 267 269 271 272 273 275 276 277 278 279 280 281 282 283 283 284 284 284
240 240 240 241 241 239 238 237 237 237 238 238 238 240 240 239 240 242 243 246 250 254 258 261 265 267 269 270 272 274 274 276 277 278 279 279 280 281 282 283 283 283 283
241 241 240 241 241 239 238 237 237 238 239 238 238 239 239 239 241 242 244 246 250 254 258 262 265 267 269 271 272 274 274 275 277 277 278 279 280 280 282 282 283 282 282
241 241 242 240 241 239 238 238 238 239 241 240 239 239 239 239 240 242 244 247 251 253 257 261 265 267 269 270 271 273 274 274 276 277 278 279 280 281 281 282 282 282 282
240 240 241 241 240 239 238 239 239 240 242 240 238 238 240 241 243 243 245 248 251 254 256 261 264 265 267 269 271 273 274 275 276 277 278 278 280 280 281 281 282 282 282
240 241 240 242 241 238 238 240 240 241 242 243 241 242 242 242 243 245 247 250 252 255 257 260 263 265 267 268 270 272 274 275 275 277 278 279 279 280 280 281 282 282 282
242 242 241 241 241 240 239 240 242 243 243 245 245 244 244 244 245 247 249 251 253 255 257 260 263 265 266 268 269 271 273 275 277 277 279 279 279 279 280 281 282 283 283
244 244 244 242 242 243 243 242 244 246 246 247 247 247 248 248 247 249 251 252 253 256 258 260 262 265 266 268 270 271 274 276 277 278 278 279 279 279 279 281 281 281 281
247 247 245 245 246 245 246 247 247 248 249 249 250 249 250 251 250 251 253 253 255 257 258 260 263 265 267 269 270 272 274 276 277 278 278 278 279 279 279 280 281 281 280
249 246 244 247 248 248 248 248 248 249 249 250 251 251 253 254 254 254 255 256 256 258 260 261 263 265 267 267 269 271 273 275 276 278 278 277 278 279 280 280 281 281 281
Height
5862 5862 5863 5863 5864 5864 5865 5865 5865 5865 5865 5866 5866 5867 5867 5867 5867 5867 5867 5866 5866 5866 5866 5866 5866 5866 5866 5866 5866 5865 5865 5865 5864 5864 5863 5863 5863 5862 5862 5862 5861 5861 5860
5859 5859 5860 5860 5861 5862 5862 5863 5863 5863 5864 5864 5864 5865 5865 5865 5865 5865 5865 5865 5865 5865 5865 5865 5865 5865 5865 5865 5864 5864 5864 5863 5863 5862 5862 5861 5861 5861 5860 5860 5859 5859 5858
5855 5855 5856 5857 5858 5858 5859 5860 5860 5861 5861 5862 5862 5863 5863 5863 5864 5864 5864 5864 5863 5863 5863 5863 5863 5863 5863 5863 5863 5863 5862 5862 5861 5861 5860 5860 5859 5859 5858 5858 5857 5857 5856
5850 5851 5852 5853 5854 5855 5856 5857 5857 5858 5859 5859 5860 5861 5861 5861 5862 5862 5862 5862 5862 5862 5862 5862 5862 5862 5862 5862 5862 5861 5861 5860 5860 5859 5858 5858 5857 5857 5856 5856 5855 5854 5854
5845 5846 5848 5849 5850 5851 5852 5853 5854 5855 5855 5856 5857 5858 5858 5859 5859 5860 5860 5860 5860 5860 5860 5860 5860 5860 5860 5860 5860 5860 5859 5858 5858 5857 5856 5856 5855 5854 5854 5853 5852 5852 5851
5840 5841 5843 5844 5845 5846 5847 5849 5850 5851 5852 5853 5854 5855 5856 5856 5857 5857 5857 5858 5858 5858 5858 5859 5859 5858 5858 5858 5858 5858 5857 5856 5856 5855 5854 5853 5853 5852 5851 5851 5850 5849 5849
5834 5835 5837 5838 5840 5841 5842 5844 5845 5847 5848 5849 5850 5851 5852 5853 5854 5854 5855 5855 5855 5856 5856 5856 5856 5856 5856 5856 5856 5855 5855 5854 5853 5853 5852 5851 5850 5850 5849 5848 5847 5846 5846
5828 5829 5831 5832 5834 5836 5837 5839 5840 5842 5843 5845 5846 5847 5848 5849 5850 5851 5852 5852 5853 5853 5853 5853 5854 5854 5854 5853 5853 5853 5852 5851 5851 5850 5849 5849 5848 5847 5846 5845 5844 5844 5843
5821 5823 5825 5826 5828 5830 5831 5833 5835 5837 5838 5840 5841 5843 5844 5846 5847 5848 5848 5849 5849 5850 5850 5850 5851 5851 5851 5850 5850 5850 5849 5848 5848 5847 5846 5846 5845 5844 5843 5843 5842 5841 5840
5815 5817 5818 5820 5822 5824 5826 5828 5830 5831 5833 5835 5837 5838 5840 5841 5842 5844 5844 5845 5846 5846 5847 5847 5847 5847 5847 5847 5847 5846 5846 5845 5845 5844 5843 5842 5842 5841 5840 5839 5838 5838 5837
5808 5810 5812 5814 5816 5818 5820 5822 5824 5826 5828 5830 5831 5833 5835 5837 5838 5839 5840 5841 5842 5842 5843 5843 5844 5844 5844 5844 5843 5843 5842 5842 5841 5840 5840 5839 5838 5838 5837 5836 5835 5834 5833
5801 5803 5805 5807 5809 5812 5813 5815 5818 5820 5822 5824 5826 5828 5830 5832 5833 5834 5836 5837 5838 5838 5839 5839 5840 5840 5840 5840 5839 5839 5838 5838 5837 5837 5836 5835 5835 5834 5833 5832 5831 5830 5829
5794 5796 5798 5800 5802 5805 5807 5809 5811 5813 5815 5818 5820 5822 5824 5826 5828 5830 5831 5832 5833 5834 5835 5835 5835 5835 5835 5835 5835 5835 5834 5834 5833 5833 5832 5831 5831 5830 5829 5828 5827 5826 5825
5786 5789 5791 5792 5795 5797 5799 5801 5804 5806 5809 5811 5813 5816 5818 5820 5823 5824 5826 5827 5828 5829 5830 5830 5831 5831 5831 5831 5831 5830 5830 5829 5829 5828 5828 5827 5826 5825 5824 5823 5823 5822 5821
5778 5780 5782 5784 5787 5789 5791 5793 5796 5799 5801 5804 5806 5809 5811 5814 5816 5819 5821 5822 5823 5824 5825 5826 5826 5826 5826 5826 5826 5826 5825 5825 5824 5824 5823 5822 5821 5820 5820 5819 5818 5817 5815
5769 5771 5774 5776 5779 5781 5783 5785 5787 5790 5793 5796 5798 5802 5804 5807 5810 5813 5815 5816 5817 5819 5820 5820 5821 5821 5821 5821 5821 5821 5820 5820 5819 5818 5818 5817 5816 5815 5814 5813 5812 5811 5810
5761 5763 5766 5768 5770 5772 5775 5777 5780 5782 5785 5788 5791 5794 5797 5800 5803 5806 5808 5810 5811 5813 5814 5815 5815 5816 5816 5816 5816 5815 5815 5814 5813 5813 5812 5811 5810 5809 5808 5807 5806 5805 5804
5753 5755 5757 5759 5761 5764 5767 5770 5772 5775 5778 5781 5784 5787 5791 5793 5796 5798 5801 5803 5804 5806 5807 5809 5809 5810 5810 5810 5810 5809 5808 5808 5807 5806 5806 5805 5804 5803 5802 5801 5800 5799 5797
5745 5747 5749 5750 5753 5756 5759 5762 5765 5768 5770 5774 5777 5780 5783 5786 5789 5791 5793 5796 5797 5799 5801 5802 5803 5803 5803 5803 5803 5803 5802 5801 5801 5800 5799 5798 5797 5796 5795 5794 5793 5792 5790
5737 5739 5742 5743 5746 5749 5751 5754 5757 5761 5763 5766 5769 5772 5775 5778 5781 5784 5786 5788 5790 5792 5793 5795 5796 5796 5796 5796 5796 5796 5795 5794 5793 5793 5792 5791 5790 5789 5788 5787 5785 5784 5783
5730 5733 5735 5737 5739 5742 5745 5747 5750 5754 5756 5759 5762 5765 5768 5771 5774 5777 5779 5781 5782 5784 5786 5787 5788 5788 5789 5789 5789 5788 5787 5787 5786 5785 5784 5783 5782 5781 5780 5779 5777 5776 5775
5724 5726 5729 5730 5732 5734 5738 5741 5744 5747 5750 5752 5755 5758 5760 5763 5766 5768 5771 5772 5774 5776 5778 5779 5780 5781 5781 5781 5781 5780 5779 5779 5778 5777 5776 5775 5774 5773 5772 5770 5769 5767 5766
5718 5720 5722 5724 5726 5728 5731 5734 5737 5740 5743 5746 5748 5751 5753 5755 5758 5760 5762 5765 5766 5768 5769 5770 5771 5772 5773 5773 5772 5772 5771 5771 5770 5769 5768 5766 5765 5764 5762 5761 5760 5758 5756
5712 5714 5716 5718 5719 5721 5724 5727 5730 5733 5736 5739 5741 5744 5746 5748 5750 5752 5754 5756 5757 5759 5760 5762 5762 5763 5763 5763 5763 5763 5762 5762 5761 5760 5759 5757 5756 5754 5753 5751 5750 5748 5746
5707 5708 5710 5712 5714 5716 5718 5721 5723 5726 5729 5731 5734 5736 5738 5740 5742 5744 5745 5747 5749 5750 5751 5752 5753 5753 5753 5754 5754 5753 5753 5752 5751 5750 5749 5747 5746 5744 5743 5741 5739 5737 5736
5702 5704 5706 5707 5709 5710 5712 5714 5717 5719 5721 5724 5726 5729 5730 5732 5734 5736 5737 5738 5740 5741 5742 5743 5743 5743 5743 5744 5744 5743 5743 5742 5740 5739 5738 5737 5735 5734 5732 5730 5728 5726 5724